User: anonymous   Login
Location: NJAA Observatory
(40.6819°N, 74.8979°W)
Time: 03:17:33
(UTC-04:00)
Language:

Meteor 1-28 Rocket - Orbit

View from above orbital plane
View from above orbital plane
View from above satellite
View from above satellite

Ground track
Ground track

The orbit data is extracted from the following two-line orbital elements,

1 10114U 77057B   16211.49860650  .00000347  00000-0  21115-4 0  9990
2 10114  97.2023  44.1274 0014525  14.0370 346.1264 15.16329946134646
Epoch (UTC): 29 July 2016 11:57:59
Eccentricity: 0.0014525
inclination: 97.2023°
perigee height: 507 km
apogee height: 527 km
right ascension of ascending node: 44.1274°
argument of perigee: 14.0370°
revolutions per day: 15.16329946
mean anomaly at epoch: 346.1264°
orbit number at epoch: 13464

The dashed part of the orbit path shows where the satellite is in the earth's shadow,  

DLR